Location: Dealu Mare
(46.0500°N, 22.8167°E)
Time: 08:55:04
(UTC+00:00)

Cosmos 44 - Pass Details

Date: 15 January 2026
Orbit: 570 x 780 km, 65.1° (Epoch: 10 February)

Event Time Altitude Azimuth Distance (km) Brightness Sun altitude
Exits shadow 04:02:45 20° 341° (NNW) 1,707 5.0 -21.0°
Maximum altitude 04:06:11 48° 47° (NE) 1,004 4.3 -20.4°
Drops below altitude 10° 04:11:23 10° 122° (ESE) 2,328 7.0 -19.6°
Sets 04:13:53 0° 128° (SE) 3,247 7.9 -19.1°
